Total_Precipitation_Accumulation
1.95 1.98 1.96 1.87 1.70 1.60 1.50 1.45 1.38 1.29 1.27 1.27 1.28 1.29 1.28 1.27 1.28 1.29 1.26 1.27 1.33 1.46 1.55 1.59 1.63 1.67 1.75 1.76 1.79 1.84 1.97 2.09 2.18 2.08 1.89 1.82 1.81 1.74 1.64 1.45 1.35 1.33 1.35
1.48 1.50 1.51 1.43 1.32 1.27 1.22 1.18 1.19 1.15 1.12 1.16 1.17 1.17 1.22 1.28 1.31 1.25 1.16 1.14 1.23 1.34 1.43 1.50 1.49 1.46 1.52 1.62 1.68 1.67 1.72 1.83 1.95 2.01 1.88 1.73 1.69 1.67 1.62 1.53 1.30 1.17 1.17
1.21 1.22 1.22 1.25 1.22 1.19 1.20 1.21 1.19 1.14 1.11 1.08 1.04 1.08 1.16 1.22 1.23 1.20 1.14 1.12 1.13 1.20 1.24 1.25 1.27 1.30 1.28 1.32 1.38 1.44 1.46 1.49 1.63 1.69 1.66 1.60 1.55 1.49 1.52 1.49 1.36 1.39 1.17
1.15 1.12 1.05 1.03 1.08 1.11 1.12 1.13 1.09 1.05 1.07 1.09 1.07 1.03 1.03 0.99 0.93 0.91 0.91 0.95 0.95 0.95 0.97 0.99 1.06 1.16 1.18 1.21 1.18 1.23 1.26 1.37 1.46 1.52 1.49 1.48 1.50 1.40 1.40 1.45 1.41 1.35 1.22
1.27 1.23 1.13 1.03 1.05 1.10 1.08 1.04 0.99 0.95 0.90 0.91 0.92 0.87 0.80 0.69 0.61 0.61 0.66 0.70 0.74 0.75 0.77 0.75 0.77 0.91 1.01 0.99 0.92 1.03 1.16 1.31 1.37 1.40 1.35 1.29 1.27 1.34 1.32 1.27 1.27 1.29 1.22
1.39 1.44 1.45 1.34 1.28 1.28 1.19 1.05 1.03 1.02 0.93 0.84 0.79 0.77 0.70 0.54 0.53 0.50 0.58 0.68 0.75 0.74 0.76 0.76 0.69 0.73 0.77 0.75 0.74 0.87 1.06 1.10 1.18 1.29 1.30 1.27 1.27 1.29 1.26 1.24 1.31 1.37 1.37
1.45 1.48 1.46 1.43 1.41 1.38 1.22 1.08 1.08 1.05 1.02 0.98 0.87 0.81 0.77 0.69 0.56 0.48 0.52 0.66 0.76 0.77 0.76 0.74 0.64 0.60 0.67 0.69 0.70 0.74 0.82 0.83 0.93 1.13 1.27 1.23 1.24 1.32 1.36 1.31 1.39 1.44 1.39
1.49 1.48 1.43 1.33 1.32 1.25 1.16 1.13 1.09 1.03 1.01 0.96 0.90 0.82 0.74 0.58 0.43 0.38 0.41 0.54 0.70 0.75 0.73 0.72 0.73 0.69 0.65 0.66 0.65 0.69 0.78 0.83 0.84 0.90 1.12 1.14 1.10 1.21 1.31 1.37 1.46 1.46 1.41
1.48 1.38 1.30 1.21 1.19 1.11 1.09 1.03 0.96 0.91 0.90 0.85 0.76 0.71 0.69 0.56 0.37 0.31 0.35 0.52 0.69 0.69 0.65 0.59 0.62 0.65 0.65 0.63 0.67 0.80 0.87 0.92 0.77 0.78 0.88 0.97 1.00 1.07 1.13 1.23 1.44 1.59 1.53
1.22 1.04 0.99 1.01 1.00 0.96 0.91 0.86 0.82 0.81 0.80 0.72 0.63 0.66 0.67 0.62 0.47 0.39 0.41 0.52 0.64 0.63 0.63 0.60 0.55 0.55 0.56 0.57 0.67 0.81 0.90 0.90 0.82 0.82 0.98 1.08 1.07 1.15 1.16 1.25 1.48 1.56 1.49
1.08 0.94 0.91 0.89 0.83 0.79 0.79 0.79 0.76 0.72 0.75 0.74 0.72 0.67 0.61 0.54 0.43 0.37 0.38 0.43 0.55 0.59 0.60 0.63 0.58 0.48 0.45 0.49 0.61 0.68 0.75 0.74 0.85 1.01 1.10 1.13 1.16 1.23 1.22 1.20 1.36 1.45 1.52
1.02 0.95 0.90 0.81 0.70 0.69 0.81 0.80 0.77 0.78 0.80 0.77 0.74 0.68 0.55 0.47 0.38 0.32 0.32 0.37 0.45 0.57 0.66 0.66 0.58 0.48 0.44 0.46 0.54 0.61 0.63 0.73 0.92 1.11 1.20 1.19 1.12 1.11 1.16 1.15 1.26 1.35 1.40
1.00 0.98 0.86 0.73 0.75 0.74 0.80 0.79 0.74 0.73 0.68 0.62 0.60 0.60 0.54 0.46 0.38 0.32 0.34 0.39 0.45 0.51 0.58 0.55 0.50 0.50 0.49 0.59 0.61 0.62 0.72 0.94 1.07 1.14 1.22 1.23 1.13 1.08 1.08 1.04 1.12 1.28 1.27
1.10 1.04 0.89 0.78 0.73 0.70 0.68 0.62 0.58 0.59 0.57 0.54 0.52 0.51 0.48 0.47 0.43 0.40 0.42 0.41 0.43 0.47 0.51 0.53 0.57 0.61 0.64 0.72 0.81 0.91 0.95 1.01 1.02 1.09 1.15 1.11 1.00 0.98 1.05 1.06 1.13 1.21 1.25
1.06 0.95 0.83 0.69 0.63 0.61 0.54 0.47 0.43 0.41 0.39 0.40 0.39 0.37 0.42 0.42 0.37 0.37 0.37 0.37 0.38 0.38 0.41 0.58 0.80 0.85 0.92 0.98 1.02 1.06 1.11 1.05 0.99 1.00 1.03 1.04 1.00 0.99 1.00 0.97 1.04 1.11 1.21
0.97 0.79 0.66 0.56 0.49 0.42 0.38 0.38 0.31 0.26 0.24 0.22 0.22 0.23 0.24 0.25 0.23 0.24 0.27 0.30 0.33 0.35 0.42 0.68 0.80 0.85 0.93 0.96 0.96 0.99 1.06 1.09 1.02 0.96 0.96 0.97 0.96 0.95 0.97 0.93 0.95 1.08 1.17
0.79 0.61 0.48 0.43 0.42 0.39 0.36 0.42 0.42 0.28 0.19 0.17 0.19 0.20 0.21 0.19 0.19 0.21 0.25 0.29 0.35 0.45 0.59 0.76 0.78 0.83 0.89 0.84 0.84 0.89 0.92 0.94 0.87 0.84 0.83 0.83 0.83 0.85 0.91 0.92 0.87 0.88 0.91
0.49 0.38 0.33 0.36 0.34 0.30 0.28 0.31 0.35 0.39 0.39 0.32 0.26 0.22 0.20 0.21 0.23 0.26 0.31 0.37 0.49 0.59 0.67 0.72 0.74 0.75 0.80 0.79 0.78 0.78 0.76 0.71 0.67 0.69 0.76 0.78 0.78 0.78 0.79 0.80 0.75 0.73 0.79
0.32 0.30 0.27 0.26 0.24 0.22 0.21 0.22 0.24 0.30 0.39 0.41 0.35 0.26 0.24 0.30 0.34 0.37 0.42 0.49 0.59 0.63 0.63 0.64 0.67 0.68 0.69 0.75 0.74 0.68 0.63 0.59 0.57 0.58 0.63 0.68 0.71 0.69 0.70 0.67 0.62 0.56 0.64
0.26 0.22 0.24 0.23 0.22 0.20 0.19 0.20 0.22 0.26 0.31 0.37 0.37 0.31 0.31 0.41 0.52 0.54 0.52 0.52 0.52 0.54 0.55 0.56 0.54 0.53 0.55 0.59 0.58 0.54 0.52 0.52 0.51 0.51 0.54 0.54 0.54 0.58 0.60 0.57 0.53 0.54 0.59
0.21 0.18 0.19 0.19 0.22 0.20 0.19 0.20 0.22 0.24 0.29 0.34 0.32 0.30 0.34 0.41 0.50 0.52 0.52 0.49 0.47 0.50 0.52 0.50 0.46 0.43 0.43 0.46 0.47 0.47 0.46 0.47 0.48 0.51 0.50 0.47 0.46 0.47 0.46 0.46 0.47 0.46 0.47
0.22 0.20 0.19 0.21 0.21 0.20 0.21 0.23 0.25 0.26 0.27 0.31 0.32 0.30 0.34 0.39 0.46 0.50 0.52 0.49 0.46 0.45 0.45 0.45 0.41 0.40 0.39 0.41 0.41 0.39 0.38 0.41 0.44 0.48 0.47 0.44 0.43 0.43 0.41 0.41 0.43 0.44 0.42
0.22 0.20 0.19 0.19 0.17 0.17 0.18 0.20 0.21 0.22 0.23 0.30 0.33 0.33 0.35 0.41 0.46 0.51 0.51 0.44 0.35 0.33 0.36 0.41 0.41 0.39 0.37 0.35 0.32 0.32 0.29 0.31 0.34 0.39 0.41 0.38 0.40 0.38 0.36 0.37 0.36 0.41 0.42
0.17 0.18 0.18 0.19 0.18 0.17 0.18 0.18 0.20 0.22 0.22 0.26 0.33 0.32 0.33 0.39 0.42 0.42 0.42 0.35 0.29 0.27 0.29 0.32 0.36 0.35 0.32 0.30 0.28 0.26 0.27 0.26 0.25 0.26 0.29 0.33 0.37 0.34 0.32 0.32 0.33 0.37 0.41
0.13 0.15 0.18 0.18 0.18 0.16 0.14 0.14 0.16 0.18 0.21 0.27 0.32 0.30 0.28 0.30 0.34 0.36 0.35 0.34 0.30 0.28 0.26 0.26 0.28 0.28 0.28 0.26 0.25 0.22 0.23 0.24 0.23 0.22 0.22 0.25 0.30 0.31 0.32 0.36 0.36 0.38 0.39
0.11 0.12 0.14 0.15 0.16 0.15 0.12 0.13 0.16 0.19 0.21 0.22 0.24 0.24 0.23 0.25 0.28 0.30 0.29 0.28 0.27 0.26 0.24 0.23 0.23 0.24 0.27 0.29 0.28 0.26 0.24 0.22 0.21 0.23 0.24 0.26 0.30 0.33 0.35 0.37 0.37 0.39 0.41